User: anonymous
Location: Ostrava
(49.8330°N, 18.2830°E)
Time: 17:10:44
(UTC+02:00)
Language:

Cosmos 2221 - Orbit

View from above orbital plane
View from above orbital plane
View from above satellite
View from above satellite

Ground track
Ground track

The orbit data is extracted from the following two-line orbital elements,

1 22236U 92080A   14205.90780745  .00000396  00000-0  42646-4 0  2005
2 22236 082.5120 337.7406 0015922 266.0724 093.8672 14.85913470170040
Epoch (UTC): 24 July 2014 21:47:14
Eccentricity: 0.0015922
inclination: 82.5120°
perigee height: 599 km
apogee height: 622 km
right ascension of ascending node: 337.7406°
argument of perigee: 266.0724°
revolutions per day: 14.85913470
mean anomaly at epoch: 93.8672°
orbit number at epoch: 17004

The dashed part of the orbit path shows where the satellite is in the earth's shadow,  

DLR